Wind_Speed
40 48 47 44 53 35 47 46 44 44 44 42 41 31 37 35 24 43 27 31 21 26 31 37 36 33 35 40 40 43 46 45 44 44 44 49 49 50 52 51 50 48 47
38 38 37 31 27 25 27 31 30 28 28 33 35 33 44 50 41 33 24 23 23 27 29 32 40 43 42 45 45 48 50 49 52 51 50 51 53 53 53 52 53 52 50
38 35 34 32 30 30 25 23 26 27 27 23 26 26 23 24 24 22 26 26 29 34 36 39 41 49 50 53 51 54 54 55 56 56 51 53 57 57 58 58 57 57 58
37 36 35 36 35 35 32 28 30 30 26 26 26 27 28 30 32 35 37 37 39 40 41 42 45 48 52 54 56 58 59 59 62 65 62 59 60 60 60 61 61 63 63
40 39 38 39 39 36 36 33 32 31 29 28 30 31 31 33 34 35 37 37 39 39 40 42 44 46 48 51 55 56 56 58 59 61 64 63 61 64 65 65 65 65 68
43 44 43 42 41 40 39 34 29 26 27 27 29 31 31 30 29 26 26 29 31 34 36 37 39 42 46 51 55 58 62 64 64 64 66 70 68 66 63 65 64 60 64
46 47 48 45 42 39 30 25 26 25 24 23 24 27 28 28 30 31 31 33 36 37 38 39 40 42 45 51 61 66 68 69 72 74 72 70 66 65 65 60 60 57 56
47 50 43 41 37 31 28 23 22 24 24 27 28 30 32 32 33 31 33 34 34 37 38 38 35 37 41 45 49 54 51 52 53 54 56 53 51 53 53 58 57 55 55
25 26 29 22 25 26 23 24 25 26 28 31 33 34 35 35 35 36 34 33 32 33 31 30 31 32 34 34 33 34 38 41 42 43 43 46 46 48 50 51 52 53 54
22 21 20 21 21 21 23 27 29 30 30 29 28 28 28 28 28 26 25 23 23 21 23 25 28 28 30 33 32 30 28 29 30 33 35 36 37 39 41 41 40 39 42
25 22 19 18 19 20 17 17 17 18 17 17 18 18 17 19 19 18 18 19 20 21 23 23 25 24 25 24 28 30 31 29 28 29 30 31 30 33 36 34 30 32 32
22 15 15 18 16 16 17 17 16 16 16 17 19 20 20 20 20 19 19 21 22 22 22 25 27 27 28 29 30 30 30 30 30 30 30 30 29 31 33 33 32 33 34
16 15 17 15 15 17 18 18 17 18 19 20 20 20 20 20 19 18 20 21 22 22 22 24 27 29 29 30 31 33 33 33 33 33 32 32 32 33 32 31 30 31 32
13 12 12 14 15 16 18 19 19 18 18 19 19 20 20 21 22 23 24 23 25 26 26 28 29 28 31 33 34 29 30 32 34 34 33 33 33 33 32 30 29 29 29
11 12 14 15 17 18 18 17 17 18 19 21 21 22 23 25 26 27 29 30 30 31 32 33 31 30 29 28 28 30 32 34 33 30 30 31 32 33 32 32 32 31 31
14 14 15 17 18 18 16 16 17 19 19 20 22 22 23 24 25 27 29 31 32 33 32 33 33 33 34 34 34 35 36 37 37 36 35 35 34 34 35 35 37 37 35
14 15 17 19 19 17 16 18 20 21 22 24 24 24 24 25 27 29 32 33 36 37 37 36 35 36 36 36 35 35 37 40 43 42 40 40 39 40 40 36 35 36 36
16 19 20 18 17 16 18 20 22 24 26 27 27 28 30 33 34 36 36 36 39 42 43 44 45 42 39 42 45 47 47 46 43 47 43 41 40 41 40 41 41 41 39
20 19 17 16 16 17 20 23 25 26 27 29 30 31 33 34 34 36 39 40 41 42 44 47 49 49 48 41 48 54 43 43 43 45 39 43 47 48 51 50 49 46 48
17 15 14 15 17 20 23 25 27 27 28 29 31 33 35 35 41 47 38 41 53 52 47 45 48 48 51 51 49 51 49 43 45 52 58 55 58 57 51 55 54 53 50
15 13 15 18 21 23 25 26 27 30 33 32 34 36 38 41 41 48 55 51 58 50 39 48 59 58 62 57 51 49 46 45 46 49 52 55 53 58 57 62 60 61 58
16 17 20 22 24 26 28 30 32 33 35 38 38 41 49 47 47 50 54 59 58 54 54 65 59 55 52 51 51 48 47 47 43 43 46 47 47 46 47 46 53 54 51
19 20 22 24 27 28 29 31 35 38 40 38 45 48 51 53 53 55 59 59 52 48 46 49 54 56 51 49 46 44 41 39 42 45 44 43 42 42 44 42 40 40 45
19 22 23 26 29 30 31 33 38 40 41 39 49 49 51 54 56 58 56 45 50 48 48 55 54 52 48 44 43 42 40 42 43 44 44 43 42 38 38 39 40 41 44
22 23 26 29 31 32 34 38 39 42 45 47 49 53 56 57 59 58 55 53 55 53 50 50 50 49 46 43 43 44 43 42 43 43 42 42 42 42 40 40 41 41 42
24 26 28 31 33 35 36 40 43 45 47 50 52 55 57 56 57 57 56 53 51 51 51 50 47 45 43 44 42 44 44 44 43 42 40 40 39 40 41 40 39 39 39
Wind_Direction
287 291 319 316 306 317 308 309 307 303 310 309 287 262 291 288 263 302 320 294 295 300 273 260 267 260 261 262 262 263 263 265 261 259 258 263 268 268 268 269 266 266 266
288 297 302 311 314 304 296 301 308 309 303 313 294 310 313 315 322 317 299 288 272 270 264 268 271 268 272 271 268 267 268 268 263 263 263 262 261 262 266 267 268 265 264
290 295 301 301 299 299 296 305 303 299 302 299 296 296 299 295 287 285 284 276 269 271 268 264 266 271 274 274 269 268 270 272 269 267 265 264 263 263 261 260 262 263 263
287 290 294 295 299 304 310 306 302 302 299 293 288 288 285 279 277 274 269 266 267 266 264 262 265 267 270 272 274 274 272 270 269 270 270 268 264 261 259 258 260 262 260
280 283 287 293 298 300 303 297 291 290 287 285 286 285 282 280 278 276 275 274 274 275 276 275 277 281 281 280 279 278 274 272 272 271 270 273 274 271 268 265 261 259 259
283 283 285 291 295 293 295 286 280 278 279 281 281 282 283 283 283 281 280 278 278 281 282 282 284 285 286 283 279 276 276 272 271 271 270 272 274 274 272 269 266 267 262
280 285 285 283 289 294 281 279 282 285 285 282 283 286 286 288 287 285 285 285 282 281 280 281 285 291 295 290 278 271 269 268 269 270 272 273 275 275 275 276 277 276 270
283 279 273 285 285 282 281 281 282 286 283 284 288 288 289 288 288 288 286 282 281 282 282 285 295 301 307 302 290 288 288 285 286 285 285 280 278 277 280 275 277 277 276
297 283 276 286 284 286 287 288 287 281 280 280 282 285 287 288 289 292 290 286 284 282 288 296 307 311 312 312 307 302 295 288 282 278 276 277 280 281 278 274 276 279 280
289 286 283 287 284 287 290 295 295 293 291 289 286 283 283 289 289 292 294 287 289 300 308 310 307 308 307 308 302 293 287 289 291 291 288 282 274 273 275 275 276 270 274
292 286 281 277 287 296 304 316 328 334 327 314 308 308 302 296 298 304 303 304 308 310 312 313 315 317 314 312 308 306 301 294 291 288 286 288 285 283 282 287 285 278 281
296 273 271 290 297 304 309 312 319 326 325 320 315 311 309 305 307 311 311 313 316 319 317 317 318 322 323 323 320 314 311 308 303 299 295 294 292 288 287 286 289 287 291
275 275 287 288 297 305 308 311 316 318 316 314 312 312 312 313 317 318 317 317 320 316 318 321 321 323 321 318 315 315 314 310 306 303 300 298 294 292 290 287 285 282 284
292 294 299 303 307 308 306 308 311 313 314 317 318 317 317 316 313 314 312 311 315 318 323 324 324 323 320 318 316 313 309 308 306 304 300 295 294 291 287 284 285 285 283
297 296 301 304 305 305 310 315 318 320 320 319 318 316 315 316 316 318 318 318 318 316 317 317 315 312 310 307 303 303 307 307 304 302 299 295 292 288 286 284 285 284 283
291 296 302 304 304 305 305 310 313 314 313 312 313 313 314 317 318 317 315 314 312 308 306 304 306 306 305 305 306 305 305 306 305 301 299 298 296 292 287 286 285 284 281
299 298 299 302 299 301 305 309 312 313 314 318 320 320 319 318 316 313 310 307 303 302 302 300 300 303 304 305 306 308 310 308 302 300 297 292 288 290 290 287 283 280 279
299 298 296 294 297 299 303 308 312 314 315 315 313 313 313 313 315 316 318 317 315 314 307 300 297 296 296 300 301 301 302 298 300 295 286 287 290 287 281 282 285 286 282
298 295 293 297 302 303 306 308 309 310 308 308 308 308 307 307 309 305 303 305 303 302 302 301 299 297 297 289 284 300 291 287 293 281 262 295 290 291 284 280 279 279 279
297 300 303 304 303 302 304 306 305 308 312 311 312 307 308 308 310 319 299 290 311 300 297 293 297 290 291 290 289 293 293 279 278 272 278 294 287 282 281 280 277 278 276
293 294 298 301 301 302 303 307 309 307 308 310 312 314 313 313 308 310 308 305 310 297 259 292 296 296 288 286 294 295 289 283 278 275 276 278 283 276 275 272 272 274 276
286 290 300 303 305 310 311 311 310 313 312 315 311 305 313 311 309 305 305 309 311 306 290 289 286 293 305 300 298 297 293 289 280 280 285 284 278 279 283 287 279 276 277
290 295 301 309 313 311 309 309 310 312 313 307 308 310 312 311 309 311 313 313 311 302 295 286 291 301 304 301 301 298 295 290 286 288 286 283 279 279 282 285 287 286 284
295 302 304 307 312 313 313 314 317 315 315 314 307 311 308 311 314 314 314 310 305 303 295 302 305 305 305 302 300 299 297 295 292 290 287 285 283 278 278 279 279 280 281
304 304 306 309 311 313 315 318 317 316 315 314 313 314 316 315 313 313 313 310 309 309 307 306 305 303 301 300 301 301 299 296 294 292 289 285 280 280 278 280 282 284 286
302 302 304 308 314 316 319 319 318 317 318 317 317 317 317 316 317 317 316 315 313 312 310 308 305 301 300 299 299 298 298 297 296 294 292 288 283 283 280 278 281 283 287
Height
5886 5881 5868 5874 5867 5872 5870 5868 5866 5862 5859 5864 5857 5856 5859 5856 5854 5853 5856 5854 5857 5857 5857 5859 5858 5857 5858 5858 5858 5856 5857 5856 5858 5859 5856 5857 5857 5855 5853 5856 5856 5857 5856
5878 5874 5872 5868 5868 5868 5865 5862 5858 5853 5852 5846 5849 5845 5846 5844 5842 5844 5846 5846 5847 5849 5850 5851 5851 5848 5848 5848 5845 5845 5844 5843 5844 5846 5844 5843 5845 5844 5843 5841 5842 5843 5845
5870 5867 5863 5862 5862 5861 5857 5850 5847 5845 5842 5841 5840 5838 5837 5837 5836 5834 5837 5838 5838 5840 5840 5839 5839 5839 5835 5834 5832 5831 5830 5828 5828 5829 5831 5830 5829 5828 5832 5829 5828 5828 5828
5861 5859 5857 5855 5851 5847 5842 5841 5839 5836 5835 5834 5832 5831 5830 5830 5829 5829 5827 5825 5825 5826 5825 5826 5824 5824 5823 5820 5818 5816 5814 5813 5811 5811 5811 5813 5813 5813 5814 5815 5816 5813 5813
5853 5850 5848 5845 5842 5838 5836 5835 5832 5830 5828 5827 5826 5824 5823 5822 5820 5819 5818 5816 5815 5814 5813 5812 5811 5809 5808 5805 5803 5800 5798 5797 5795 5793 5793 5791 5792 5792 5793 5795 5797 5800 5799
5843 5841 5839 5836 5834 5831 5827 5825 5823 5823 5822 5821 5819 5817 5815 5814 5812 5811 5809 5807 5806 5804 5802 5800 5798 5796 5794 5790 5786 5782 5780 5778 5778 5776 5775 5775 5773 5774 5774 5774 5775 5774 5780
5832 5830 5828 5827 5825 5824 5820 5816 5815 5814 5813 5812 5810 5809 5807 5805 5803 5801 5799 5796 5794 5792 5790 5787 5785 5782 5778 5773 5769 5765 5762 5758 5755 5754 5755 5753 5755 5754 5756 5756 5755 5757 5754
5819 5818 5816 5815 5815 5815 5813 5810 5808 5807 5806 5804 5802 5800 5799 5796 5796 5793 5790 5787 5784 5782 5780 5778 5773 5768 5762 5754 5750 5745 5741 5739 5738 5737 5737 5738 5737 5738 5739 5738 5739 5740 5738
5809 5806 5806 5807 5806 5806 5805 5804 5801 5799 5796 5794 5792 5791 5788 5785 5784 5781 5778 5775 5774 5772 5770 5767 5761 5756 5752 5745 5741 5738 5733 5729 5727 5727 5725 5724 5724 5723 5724 5725 5723 5721 5723
5805 5802 5801 5800 5800 5799 5797 5795 5792 5788 5786 5784 5783 5781 5779 5776 5774 5772 5770 5768 5766 5763 5760 5756 5751 5747 5741 5737 5733 5729 5725 5722 5720 5719 5717 5714 5713 5712 5713 5710 5707 5709 5708
5798 5796 5795 5796 5795 5793 5791 5788 5785 5782 5779 5777 5776 5774 5773 5771 5769 5767 5764 5762 5759 5755 5752 5748 5744 5739 5735 5730 5725 5722 5720 5716 5712 5709 5708 5706 5703 5701 5701 5698 5695 5696 5695
5792 5791 5792 5791 5789 5788 5786 5784 5781 5778 5775 5773 5772 5770 5768 5766 5763 5761 5758 5754 5751 5747 5743 5740 5735 5732 5726 5720 5716 5714 5712 5708 5705 5702 5700 5698 5695 5692 5691 5689 5686 5685 5683
5788 5788 5787 5786 5785 5783 5782 5779 5776 5774 5772 5769 5768 5766 5763 5761 5759 5756 5752 5748 5744 5742 5739 5734 5727 5721 5716 5713 5710 5707 5704 5701 5698 5695 5693 5689 5686 5685 5682 5680 5678 5677 5675
5783 5783 5782 5781 5780 5779 5777 5775 5772 5769 5767 5765 5763 5760 5757 5754 5752 5749 5746 5742 5738 5734 5729 5724 5719 5715 5711 5707 5703 5702 5699 5695 5691 5687 5684 5681 5678 5676 5673 5671 5670 5669 5667
5781 5779 5778 5777 5776 5774 5772 5769 5767 5765 5762 5760 5757 5755 5751 5748 5745 5741 5738 5734 5729 5725 5720 5717 5714 5711 5707 5704 5701 5697 5693 5688 5684 5680 5676 5673 5670 5667 5664 5663 5661 5660 5658
5777 5776 5774 5773 5771 5769 5767 5765 5763 5760 5758 5755 5752 5750 5747 5744 5740 5736 5732 5728 5724 5720 5716 5711 5708 5704 5700 5695 5691 5687 5683 5678 5674 5670 5667 5664 5661 5658 5655 5653 5651 5649 5648
5773 5772 5770 5768 5767 5764 5762 5760 5757 5755 5753 5750 5747 5744 5741 5739 5735 5731 5727 5723 5718 5713 5708 5704 5700 5696 5691 5687 5682 5678 5675 5671 5666 5661 5658 5654 5651 5649 5644 5643 5640 5638 5636
5769 5767 5765 5763 5761 5759 5757 5755 5753 5751 5748 5745 5742 5739 5736 5731 5726 5721 5715 5710 5706 5701 5697 5692 5688 5685 5681 5676 5672 5669 5664 5659 5653 5649 5643 5641 5640 5638 5635 5633 5630 5626 5624
5764 5762 5760 5758 5756 5755 5753 5751 5748 5745 5742 5739 5736 5732 5727 5722 5718 5712 5706 5699 5693 5686 5681 5677 5673 5669 5667 5664 5656 5654 5651 5647 5643 5627 5614 5624 5622 5622 5621 5619 5617 5615 5612
5759 5757 5756 5754 5752 5750 5748 5746 5743 5740 5736 5732 5729 5725 5720 5716 5708 5701 5680 5683 5679 5670 5667 5662 5659 5653 5648 5644 5642 5636 5632 5629 5625 5620 5607 5604 5608 5607 5604 5602 5599 5597 5597
5755 5754 5752 5750 5748 5746 5743 5740 5737 5733 5730 5726 5721 5717 5714 5707 5701 5693 5684 5679 5673 5668 5648 5647 5642 5637 5631 5624 5619 5617 5614 5612 5609 5605 5601 5598 5594 5588 5586 5582 5581 5579 5578
5751 5750 5748 5745 5743 5740 5737 5733 5730 5725 5722 5717 5710 5704 5700 5695 5688 5682 5674 5666 5657 5649 5643 5634 5626 5620 5612 5608 5603 5598 5593 5589 5587 5585 5582 5578 5574 5570 5566 5563 5561 5561 5560
5747 5745 5743 5740 5737 5734 5730 5727 5722 5717 5713 5709 5702 5695 5688 5681 5674 5667 5658 5648 5640 5632 5625 5618 5612 5603 5598 5591 5586 5581 5577 5573 5570 5566 5563 5560 5557 5554 5552 5549 5545 5544 5544
5742 5740 5737 5734 5731 5727 5723 5719 5714 5710 5703 5698 5694 5684 5676 5667 5658 5649 5641 5633 5626 5618 5610 5602 5594 5587 5581 5576 5571 5566 5563 5558 5554 5551 5547 5544 5541 5538 5537 5535 5534 5532 5530
5736 5733 5731 5728 5725 5721 5717 5712 5706 5700 5693 5687 5679 5670 5661 5652 5643 5635 5627 5617 5609 5601 5593 5586 5580 5573 5567 5563 5558 5552 5548 5544 5540 5536 5532 5528 5526 5523 5522 5520 5518 5516 5513
5732 5729 5726 5722 5718 5713 5708 5702 5696 5689 5682 5674 5666 5656 5647 5638 5629 5620 5611 5602 5594 5586 5578 5571 5565 5559 5554 5549 5546 5539 5534 5530 5525 5521 5517 5513 5511 5508 5507 5505 5503 5501 5499